Location: Audinghen
(50.8518°N, 1.6129°E)
Time: 21:24:22
(UTC+00:00)

Cosmos 1953 - Pass Details

Date: 07 August 2020
Orbit: 538 x 558 km, 82.5° (Epoch: 21 September)

Event Time Altitude Azimuth Distance (km) Brightness Sun altitude
Exits shadow 03:35:59 - 197° (SSW) 2,207 4.9 -7.9°
Reaches altitude 10° 03:36:55 10° 198° (SSW) 1,822 4.5 -7.8°
Maximum altitude 03:40:55 67° 282° (WNW) 603 2.4 -7.3°
Drops below altitude 10° 03:44:58 10° 6° (N) 1,849 5.7 -6.8°
Sets 03:47:10 0° 9° (N) 2,752 6.6 -6.5°
